Location: Long Island Community Building
(39.9491°N, 99.5338°W)
Time: 15:35:16
(UTC+00:00)

Cosmos 1452 Rocket - Pass Details

Date: 06 December 2019
Orbit: 767 x 775 km, 74.1° (Epoch: 18 January)

Event Time Altitude Azimuth Distance (km) Brightness Sun altitude
Rises 12:06:34 0° 183° (S) 3,228 6.9 -18.4°
Reaches altitude 10° 12:08:59 10° 178° (S) 2,307 6.2 -17.9°
Maximum altitude 12:14:02 50° 104° (ESE) 974 4.5 -17.0°
Drops below altitude 10° 12:19:07 10° 29° (NNE) 2,326 6.2 -16.0°
Sets 12:21:34 0° 25° (NNE) 3,259 6.9 -15.6°
